Regional Weather Roundup
Issued by NWS

Home | Current Version | Previous Version | Text Only | Print | Product List | Glossary Off
Versions: 1 2 3 4 5 6 7 8 9 10 11 12 13 14 15 16 17 18 19 20 21 22 23 24 25 26 27 28 29 30 31 32 33 34 35 36 37 38 39 40 41 42 43 44 45 46 47 48 49 50

000
ASUS45 KTFX 210804
RWRMT
MONTANA HOURLY WEATHER ROUNDUP
NATIONAL WEATHER SERVICE GREAT FALLS MT
204 AM MDT MON APR 21 2014

NOTE: "FAIR" INDICATES FEW OR NO CLOUDS BELOW 12000 FEET WITH NO
SIGNIFICANT WEATHER AND/OR OBSTRUCTIONS TO VISIBILITY.

* THESE STATIONS ARE NOT UNDER NWS QUALITY CONTROL. THEY DO NOT
   REPORT WEATHER SUCH AS PRECIPITATION OR FOG.

MTZ001>007-043-210900-
WEST OF THE DIVIDE
CITY           SKY/WX    TMP DP  RH WIND       PRES   REMARKS
KALISPELL      CLEAR     28  23  81 CALM      30.23S
MISSOULA       PTCLDY    37  25  62 CALM      30.26S
BUTTE          MOCLDY    34  19  54 SE7       30.27S WCI  28
MULLAN PASS    CLEAR     36  21  54 VRB6      30.21S WCI  31
* ESSEX        N/A       30  26  85 SE1        N/A
* LINCOLN      N/A       28  20  72 NW1        N/A
* LOOKOUT PASS N/A       32  24  72 S2         N/A
* POLSON       N/A       36  20  52 SE2        N/A
* SEELEY LAKE  N/A       27  23  85 N1         N/A
* THOMP F APT  CLEAR     37  14  39 N1         N/A
$$

MTZ008-052>055-210900-
SOUTHWEST MONTANA
CITY           SKY/WX    TMP DP  RH WIND       PRES   REMARKS
BOZEMAN        PTCLDY    32  21  64 S6        30.25R WCI  26
DILLON         MOCLDY    34  14  44 E8        30.25R WCI  27
W YELLOWSTONE  N/A       27  22  81 N/A        N/A
* THREE FORKS  MOCLDY    37  19  48 N/A        N/A
* BOULDER HILL N/A       40  14  35 S9         N/A   WCI  34
* MONIDA PASS  N/A       32  14  47 SW3        N/A
* RAYNOLDS PAS N/A       31  19  61 E6         N/A   WCI  25
* WHITEHALL    N/A       40  14  35 N4         N/A
* WISE RIVER   N/A       31  20  64 W4         N/A
$$

MTZ009>010-012-014-046-048-049-054-210900-
EAST SLOPES AND CENTRAL MONTANA
CITY           SKY/WX    TMP DP  RH WIND       PRES   REMARKS
CUT BANK       CLEAR     39  21  48 W14       30.16S WCI  31
GREAT FALLS    MOCLDY    36  21  54 SW8       30.19R WCI  30
HELENA         CLOUDY    46  18  33 W5        30.22S
MALMSTROM AFB  MOCLDY    37  19  48 SE6       30.17S WCI  32
* CONRAD       PTCLDY    30  21  69 N/A        N/A
* DEARBORN     N/A       42  24  49 SW2        N/A
* MONARCH      N/A       39  11  31 S2         N/A
* PENDROY      N/A       35  15  44 W2         N/A
* ROGERS PASS  N/A       39  15  37 SE8G16     N/A   WCI  33
* SAINT MARY   N/A       42  19  40 S10G23     N/A
* SWEET GRASS  N/A       38  21  50 W13        N/A   WCI  30
$$

MTZ011-013-016-021-035-040-045-047-050-051-210900-
NORTH CENTRAL MONTANA
CITY           SKY/WX    TMP DP  RH WIND       PRES   REMARKS
HAVRE          PTCLDY    37  23  57 S8        30.17R WCI  31
LEWISTOWN      CLOUDY    37  21  52 SW9       30.21S WCI  30
* CHESTER      N/A       40  22  49 E1         N/A
* DENTON       N/A       37  21  52 N/A        N/A
* GEYSER       N/A       34  19  54 S8         N/A   WCI  27
* JUDITH GAP   N/A       41  17  38 NE1        N/A
* LOMA         N/A       41  22  47 S2         N/A
$$

MTZ017>020-022>027-061-062-210900-
NORTHEAST MONTANA
CITY           SKY/WX    TMP DP  RH WIND       PRES   REMARKS
GLASGOW        PTCLDY    37  28  70 NE5       30.13R WCI  33
GLENDIVE       PTCLDY    37  25  62 W12       30.15R WCI  29
JORDAN         MOCLDY    36  21  54 NW5       30.14S WCI  32
SIDNEY         PTCLDY    39  28  65 W8        30.13S WCI  33
WOLF POINT     PTCLDY    37  27  67 W3        30.13S
* BEAVER HILL  N/A       43  24  47 W6         N/A
* CIRCLE       N/A       37  27  67 N/A        N/A
* LINDSAY DVD  N/A       40  25  55 NW6        N/A   WCI  36
* NAVAJO       N/A       35  31  85 NW12       N/A   WCI  27
$$

MTZ028>042-056>058-210900-
SOUTHCENTRAL AND SOUTHEAST MONTANA
CITY           SKY/WX    TMP DP  RH WIND       PRES   REMARKS
BAKER          CLEAR     34  23  64 CALM      30.15R
BILLINGS       CLEAR     39  21  48 W8        30.21R WCI  33
LIVINGSTON     PTCLDY    34  19  54 S3        30.23S
MILES CITY     CLEAR     37  25  62 W6        30.17R WCI  32
* LAUREL APT   CLEAR     43  16  34 W5         N/A
* ROUNDUP APT  PTCLDY    43  12  28 SW7        N/A
* HYSHAM       N/A       46  15  29 W4         N/A
* LAME DEER    N/A       45  14  28 NW2        N/A
* REED POINT   N/A       34  23  64 N/A        N/A
* ROSCOE HILL  N/A       41   8  25 SW6        N/A
$$

REGIONAL REPORTS...DAKOTAS
CITY           SKY/WX    TMP DP  RH WIND       PRES   REMARKS
WILLISTON      CLEAR     36  30  79 W6        30.11R WCI  31
DICKINSON      CLEAR     37  25  62 W9        30.09R WCI  30
CROSBY         PTCLDY    39  39 100 NW9       30.09R WCI  33
TIOGA          CLEAR     39  39 100 NW14      30.09R WCI  31
WATFORD CITY   CLEAR     39  32  76 NW7       30.08S WCI  34
BISMARCK       CLEAR     39  28  65 N6        30.07R WCI  35
GRAND FORKS    CLEAR     46  36  68 SW9       29.90F
FARGO          CLOUDY    52  36  55 W9        29.94S
BUFFALO SD     CLEAR     43  19  38 W7        30.10R
RAPID CITY     CLEAR     39  23  53 NW9       30.17R WCI  33
$$

REGIONAL REPORTS...WYOMING/IDAHO/WASHINGTON
CITY           SKY/WX    TMP DP  RH WIND       PRES   REMARKS
GILLETTE       PTCLDY    30  25  82 SW5       30.21S WCI  25
SHERIDAN       MOCLDY    36  25  64 SW3       30.21S
CODY           CLEAR     43  18  37 NW7       30.23S
YELLOWSTONE LA PTCLDY    25  19  78 CALM      30.33R
SALMON         PTCLDY    36  21  54 CALM      30.25R
MULLAN PASS    CLEAR     36  21  54 VRB6      30.21S WCI  31
SPOKANE        CLEAR     43  30  60 N5        30.18S

$$




USA.gov is the U.S. government's official web portal to all federal, state and local government web resources and services.